Dewpoint
46 42 36 38 41 38 35 33 33 35 37 37 36 35 37 38 39 37 37 36 35 35 38 39 39 38 39 39 40 42 53 57 60 59 58 58 58 58 60 62 63 63 63 63
43 38 38 38 41 40 39 36 35 36 38 37 36 36 36 37 36 36 35 35 34 35 36 38 36 37 36 38 42 48 53 58 59 60 60 59 59 59 59 60 60 61 62 63
36 35 38 39 38 37 37 36 34 33 37 37 33 30 31 31 35 35 36 36 36 36 36 35 35 36 37 38 38 39 40 42 47 58 60 59 60 60 60 60 60 60 60 61
38 38 39 39 37 38 35 38 35 36 36 29 32 27 28 29 29 30 31 31 32 33 34 35 35 35 36 37 38 38 38 39 40 42 51 58 58 58 59 60 61 61 61 60
32 38 38 37 38 39 36 39 37 37 35 34 33 30 28 28 26 27 28 33 32 33 34 34 33 33 33 35 36 36 34 35 36 38 40 41 42 44 45 46 47 48 50 56
34 39 38 38 39 39 38 36 36 35 35 28 29 28 25 26 26 26 29 30 32 33 32 32 32 31 31 32 33 33 31 31 33 36 37 39 40 41 42 43 45 47 49 51
37 36 38 38 36 38 38 35 27 25 27 23 27 29 27 27 28 28 29 30 32 32 32 31 31 30 29 29 30 28 28 28 31 32 34 36 38 39 38 39 40 41 43 47
28 26 37 39 35 35 36 33 26 18 20 21 27 27 26 30 31 32 31 32 32 31 30 30 30 30 29 28 27 26 26 25 26 30 31 32 34 36 34 34 33 35 36 38
27 28 34 37 37 35 36 34 34 30 21 24 22 23 21 26 30 30 31 30 29 28 27 27 26 26 27 27 25 22 22 22 23 25 30 30 29 31 32 31 29 30 32 32
29 25 32 35 37 36 34 36 31 32 18 15 18 20 19 23 28 29 30 29 28 27 26 25 24 22 22 25 23 20 19 19 21 23 26 28 27 25 27 29 26 26 28 30
32 31 29 36 35 31 34 33 32 29 23 19 16 19 27 25 27 29 30 29 27 26 25 24 23 21 19 21 22 17 17 17 18 21 22 25 24 21 21 22 22 23 25 26
34 33 28 28 32 34 33 31 32 26 27 28 23 19 29 28 30 30 30 29 27 25 24 22 22 19 17 17 20 14 15 16 17 19 19 20 20 18 17 18 19 21 22 23
35 31 26 25 31 36 33 34 32 31 29 24 24 20 28 29 30 30 29 28 26 24 23 21 19 17 15 15 16 12 13 14 16 16 17 17 16 16 16 17 18 19 19 20
37 30 27 19 20 29 31 32 33 31 27 25 26 25 26 28 29 30 28 26 24 22 22 20 18 15 13 14 11 11 12 13 14 14 16 14 14 14 15 16 17 18 18 19
33 27 28 28 28 28 29 29 30 32 30 26 23 25 26 28 30 30 28 25 22 21 20 18 16 13 11 11 10 10 11 13 13 13 13 12 14 13 14 15 16 16 18 17
35 26 27 26 28 31 29 28 29 30 31 30 29 27 27 29 30 30 27 24 23 20 18 17 18 16 16 13 12 11 11 12 12 12 12 12 12 12 13 14 14 15 16 16
31 32 29 24 27 29 26 29 31 30 32 30 29 29 32 30 30 29 27 25 24 18 17 18 15 11 8 7 7 8 10 10 10 11 11 11 11 11 12 13 13 14 15 16
24 25 27 24 23 17 22 29 30 29 29 30 32 31 31 32 24 22 27 24 19 19 15 10 7 6 6 7 8 8 10 9 9 9 9 10 10 10 11 12 13 14 16 16
30 26 24 22 19 19 21 25 29 27 26 29 30 32 25 19 20 14 13 15 14 12 11 8 8 8 8 9 7 8 8 8 8 8 8 8 9 10 11 12 13 15 16 18
31 31 26 25 20 16 18 21 28 32 26 28 31 31 21 25 29 27 12 12 11 11 11 11 11 11 9 6 6 7 7 6 6 7 7 8 9 10 11 12 13 15 17 19
26 26 24 23 21 21 25 22 27 26 21 25 27 32 24 29 23 14 11 11 12 10 8 8 8 6 3 5 6 6 5 5 6 6 7 7 8 11 12 12 13 16 18 19
22 23 22 23 21 17 20 22 27 23 18 20 21 23 17 10 10 9 8 6 5 5 5 5 4 3 3 5 5 5 4 4 6 5 5 6 10 10 11 12 14 15 15 16
20 23 21 23 22 18 13 12 12 15 18 16 16 14 11 9 7 7 6 5 4 4 4 4 4 3 2 4 3 3 3 4 4 2 3 6 8 10 10 11 11 13 14 14
27 24 25 24 20 18 14 10 9 13 14 10 11 10 10 7 6 6 5 4 4 5 4 5 4 2 1 2 2 1 2 2 -2 -1 3 6 6 7 8 9 10 12 12 14
25 27 21 21 17 15 17 13 8 6 6 6 6 7 6 6 5 5 5 5 4 4 3 3 2 0 -1 -1 -1 -2 -1 -1 -2 1 3 4 5 5 5 6 8 11 12 16
20 25 24 25 21 20 16 16 7 6 5 6 5 5 6 6 6 6 5 5 4 2 2 0 -1 -3 -5 -6 -5 -6 -7 -5 -7 -1 1 2 2 2 3 3 2 8 12 13
Lifted_Index
5 5 6 6 6 6 6 6 6 6 6 7 7 7 8 8 8 8 9 9 9 9 9 8 8 8 9 9 8 8 6 4 2 1 -0 -1 -2 -2 -2 -2 -2 -2 -2 -2
5 5 6 6 6 6 6 6 6 6 7 7 7 7 7 8 8 8 9 9 9 9 9 9 9 9 9 8 8 7 6 4 2 0 -1 -1 -2 -2 -2 -2 -2 -2 -2 -2
6 6 6 6 6 6 5 6 6 6 6 7 6 6 6 8 8 8 9 9 9 9 9 9 9 9 9 8 8 7 6 4 1 -0 -1 -2 -2 -2 -2 -2 -2 -2 -2 -2
6 6 5 5 5 5 5 5 6 6 6 6 6 5 5 7 8 8 8 8 9 8 8 8 8 8 8 8 7 6 5 4 2 1 -0 -1 -1 -1 -1 -2 -1 -1 -1 -1
6 5 5 5 4 5 5 5 5 6 5 5 5 4 5 7 8 8 8 8 8 8 8 8 8 8 8 8 7 6 5 4 4 3 2 2 1 1 1 2 2 2 3 3
5 5 5 4 4 4 4 4 4 4 4 4 4 4 5 6 7 8 8 8 8 8 7 7 7 7 7 7 7 6 5 5 5 5 5 5 4 5 5 5 5 5 5 5
5 5 4 4 4 4 4 3 3 2 2 2 4 4 5 6 7 8 8 8 8 7 7 7 6 6 6 6 6 6 6 6 6 6 6 6 7 7 7 7 7 7 7 7
4 4 4 4 4 3 3 3 2 1 1 2 4 4 5 7 7 8 8 8 7 7 6 6 6 6 5 6 6 6 6 6 7 7 8 8 8 8 9 9 9 9 9 9
4 4 4 4 3 3 3 3 2 2 2 2 4 5 6 7 7 7 7 7 7 6 5 5 5 5 6 6 6 7 7 8 8 9 9 9 10 10 10 10 10 11 11 10
3 3 4 4 3 3 3 3 3 2 2 2 3 4 6 7 7 6 6 6 5 5 4 5 5 5 6 7 8 8 8 9 9 10 10 10 10 11 11 11 11 11 11 11
3 3 4 4 4 3 3 3 3 3 2 2 3 4 6 6 6 5 5 5 5 4 4 4 5 6 7 7 8 8 8 8 8 9 9 9 10 10 10 10 11 11 11 11
2 2 3 4 4 4 4 3 3 3 3 3 3 4 5 6 5 4 4 4 4 3 4 4 5 6 6 6 6 6 7 7 8 8 9 9 9 10 10 10 10 11 11 11
1 2 3 4 4 4 4 3 3 2 3 4 4 4 5 5 4 3 3 3 3 3 3 4 5 6 5 5 4 5 5 7 8 8 9 9 10 10 10 10 11 11 11 10
1 2 3 4 4 4 4 3 3 2 3 4 4 4 5 4 3 2 2 2 2 2 3 4 4 5 4 4 4 4 5 6 8 9 9 10 10 11 11 11 11 11 11 11
2 2 3 3 4 3 3 4 3 3 3 3 4 4 4 3 3 2 1 1 1 1 2 3 4 4 3 3 3 3 4 6 8 9 10 10 11 11 12 12 12 12 12 11
2 2 2 3 3 2 3 4 4 3 3 3 3 3 3 2 2 1 1 1 1 1 2 3 3 3 3 3 3 4 5 6 8 10 11 11 12 12 12 12 12 12 12 12
2 2 2 2 2 2 3 4 4 3 3 2 3 3 2 1 1 1 0 0 1 1 1 2 2 3 3 4 4 6 7 9 10 12 12 12 12 12 12 12 12 12 12 12
3 2 2 2 2 2 4 4 4 3 2 2 3 2 1 1 1 0 0 0 1 1 2 2 3 3 4 5 7 9 10 11 12 12 13 13 13 13 13 13 13 13 13 12
3 2 2 1 1 2 4 4 3 2 2 2 2 2 1 1 0 0 0 1 1 2 2 3 4 5 6 7 10 11 11 12 12 13 13 13 14 13 13 13 13 14 14 14
2 1 1 1 1 2 4 4 2 2 2 2 2 1 1 0 0 0 0 1 1 2 3 4 5 6 8 10 12 12 12 12 13 13 14 15 15 14 14 14 15 15 15 15
0 0 0 0 0 2 3 3 2 1 2 2 1 1 1 0 1 1 0 1 1 3 4 6 7 8 11 13 13 13 12 13 14 15 15 16 16 15 15 16 16 16 16 16
0 0 0 0 0 1 2 2 1 1 1 1 1 1 1 1 1 1 1 1 2 3 5 7 9 11 13 14 14 13 13 14 15 16 16 16 16 16 16 16 16 16 16 16
-0 -0 -0 0 1 1 2 2 1 1 0 1 1 1 1 1 1 1 1 2 3 4 6 9 11 12 13 14 14 14 14 15 16 16 16 16 16 17 17 17 16 16 16 15
-0 -0 -0 0 1 1 1 1 1 1 0 1 1 1 2 2 1 2 2 3 4 6 9 11 12 12 13 14 15 15 16 16 16 16 16 16 16 16 16 17 16 16 16 15
-0 -0 0 0 1 1 1 1 1 1 1 1 2 2 3 3 3 3 4 5 7 9 11 12 12 13 13 14 15 16 17 17 16 15 15 15 15 15 16 16 16 16 16 16
0 0 0 1 1 1 2 2 2 1 1 1 2 3 3 3 4 4 6 8 9 10 12 12 13 13 14 15 16 17 17 17 16 15 15 15 15 15 15 16 16 17 17 17